This is the latest recevied weather packets stored in our database for station/object YO6SAY-10. If no packets are shown the sender has not sent any weather packets the latest 10 day(s).
| Time | Temp. | Humidity | Pressure | Rain* | Wind** | Luminosity | Snow |
|---|---|---|---|---|---|---|---|
| 1777756516 | 10° C | 53% | 955.3 hPa | - | - | - | - |
| 1777755616 | 10° C | 53% | 955.4 hPa | - | - | - | - |
| 1777753810 | 10.56° C | 53% | 955.3 hPa | - | - | - | - |
| 1777752910 | 10.56° C | 53% | 955.4 hPa | - | - | - | - |
| 1777752010 | 10.56° C | 53% | 955.3 hPa | - | - | - | - |
| 1777751110 | 10.56° C | 52% | 955.3 hPa | - | - | - | - |
| 1777749304 | 10.56° C | 52% | 955.4 hPa | - | - | - | - |
| 1777746604 | 10.56° C | 51% | 955.1 hPa | - | - | - | - |
| 1777745704 | 11.11° C | 52% | 955 hPa | - | - | - | - |
| 1777739403 | 12.22° C | 49% | 954.5 hPa | - | - | - | - |
| 1777735802 | 12.22° C | 49% | 954.7 hPa | - | - | - | - |
| 1777734902 | 12.22° C | 49% | 954.6 hPa | - | - | - | - |
| 1777734002 | 12.22° C | 49% | 954.9 hPa | - | - | - | - |
| 1777733102 | 12.22° C | 50% | 955.1 hPa | - | - | - | - |
| 1777732201 | 12.78° C | 49% | 954.9 hPa | - | - | - | - |
| 1777731301 | 13.33° C | 49% | 954.9 hPa | - | - | - | - |
| 1777730401 | 12.78° C | 49% | 955.1 hPa | - | - | - | - |
| 1777729501 | 13.33° C | 49% | 955 hPa | - | - | - | - |
| 1777728601 | 13.33° C | 47% | 955.2 hPa | - | - | - | - |
| 1777727700 | 12.78° C | 47% | 955.3 hPa | - | - | - | - |
| 1777726800 | 12.78° C | 47% | 955.4 hPa | - | - | - | - |
| 1777725899 | 12.78° C | 47% | 955.3 hPa | - | - | - | - |
| 1777724999 | 12.78° C | 47% | 955.3 hPa | - | - | - | - |
| 1777724099 | 13.33° C | 47% | 955.3 hPa | - | - | - | - |
| 1777723194 | 13.33° C | 46% | 955.3 hPa | - | - | - | - |
* Rain since midnight (hover to see other rain measurements)
** Current wind speed in m/s (hover to see current wind gust speed)